Time,TemperatureF,DewpointF,PressureIn,WindDirection,WindDirectionDegrees,WindSpeedMPH,WindSpeedGustMPH,Humidity,HourlyPrecipIn,Conditions,Clouds,dailyrainin,SoftwareType,DateUTC
2013-02-20 01:02:00,31.0,13.0,-100.00,WNW,296,9.0,13.0,47,0.00,,,0.01,,2013-02-20 06:02:00,
2013-02-20 01:11:00,31.0,13.0,-100.00,WNW,296,9.0,13.0,47,0.00,,,0.01,,2013-02-20 06:11:00,
2013-02-20 01:22:00,31.0,15.0,-100.00,NW,304,11.0,13.0,51,0.00,,,0.01,,2013-02-20 06:22:00,
2013-02-20 01:32:00,31.0,15.0,-100.00,NW,304,11.0,13.0,51,0.00,,,0.01,,2013-02-20 06:32:00,
2013-02-20 01:42:00,31.0,14.0,-100.00,NW,304,13.0,19.0,49,0.00,,,0.01,,2013-02-20 06:42:00,
2013-02-20 01:52:00,31.0,14.0,-100.00,NW,304,13.0,19.0,49,0.00,,,0.01,,2013-02-20 06:52:00,
2013-02-20 02:41:00,28.0,14.0,-100.00,NW,313,16.0,23.0,54,0.00,,,0.01,,2013-02-20 07:41:00,
2013-02-20 03:22:00,28.0,14.0,-100.00,NW,313,16.0,23.0,54,0.00,,,0.01,,2013-02-20 08:22:00,
2013-02-20 03:32:00,28.0,14.0,-100.00,NW,313,16.0,23.0,54,0.00,,,0.01,,2013-02-20 08:32:00,
2013-02-20 04:21:00,27.0,12.0,-100.00,WNW,291,9.0,13.0,55,0.00,,,0.01,,2013-02-20 09:21:00,
2013-02-20 04:42:00,27.0,13.0,-100.00,WNW,296,13.0,16.0,54,0.00,,,0.01,,2013-02-20 09:42:00,
2013-02-20 04:52:00,27.0,13.0,-100.00,WNW,296,13.0,16.0,54,0.00,,,0.01,,2013-02-20 09:52:00,
2013-02-20 05:01:00,27.0,12.0,-100.00,WNW,291,9.0,13.0,55,0.00,,,0.01,,2013-02-20 10:01:00,
2013-02-20 05:12:00,27.0,12.0,-100.00,WNW,291,9.0,13.0,55,0.00,,,0.01,,2013-02-20 10:12:00,
2013-02-20 06:01:00,26.0,12.0,-100.00,NW,309,15.0,21.0,56,0.00,,,0.01,,2013-02-20 11:01:00,
2013-02-20 06:42:00,26.0,12.0,-100.00,NW,309,15.0,21.0,56,0.00,,,0.01,,2013-02-20 11:42:00,
2013-02-20 06:52:00,26.0,12.0,-100.00,NW,309,15.0,21.0,56,0.00,,,0.01,,2013-02-20 11:52:00,
2013-02-20 07:22:00,24.0,12.0,-100.00,NW,308,16.0,24.0,60,0.00,,,0.00,,2013-02-20 12:22:00,
2013-02-20 08:01:00,25.0,11.0,-100.00,NW,309,17.0,20.0,56,0.00,,,0.00,,2013-02-20 13:01:00,
2013-02-20 08:02:00,24.0,12.0,-100.00,NW,308,16.0,24.0,60,0.00,,,0.00,,2013-02-20 13:02:00,
2013-02-20 08:12:00,24.0,12.0,-100.00,NW,308,16.0,24.0,60,0.00,,,0.00,,2013-02-20 13:12:00,
2013-02-20 08:32:00,25.0,11.0,-100.00,NW,309,17.0,20.0,56,0.00,,,0.00,,2013-02-20 13:32:00,
2013-02-20 08:42:00,25.0,11.0,-100.00,NW,309,17.0,20.0,56,0.00,,,0.00,,2013-02-20 13:42:00,
2013-02-20 08:52:00,25.0,11.0,-100.00,NW,309,17.0,20.0,56,0.00,,,0.00,,2013-02-20 13:52:00,
2013-02-20 10:01:00,26.0,10.0,-100.00,WNW,301,23.0,28.0,49,0.00,,,0.00,,2013-02-20 15:01:00,
2013-02-20 10:02:00,26.0,11.0,-100.00,NW,309,20.0,25.0,51,0.00,,,0.00,,2013-02-20 15:02:00,
2013-02-20 10:12:00,26.0,11.0,-100.00,NW,309,20.0,25.0,51,0.00,,,0.00,,2013-02-20 15:12:00,
2013-02-20 10:22:00,27.0,10.0,-100.00,NW,306,21.0,28.0,49,0.00,,,0.00,,2013-02-20 15:22:00,
2013-02-20 10:32:00,27.0,10.0,-100.00,NW,306,21.0,28.0,49,0.00,,,0.00,,2013-02-20 15:32:00,
2013-02-20 10:41:00,29.0,10.0,-100.00,West,272,8.0,13.0,45,0.00,,,0.00,,2013-02-20 15:41:00,
2013-02-20 10:42:00,26.0,10.0,-100.00,WNW,301,23.0,28.0,49,0.00,,,0.00,,2013-02-20 15:42:00,
2013-02-20 10:52:00,26.0,10.0,-100.00,WNW,301,23.0,28.0,49,0.00,,,0.00,,2013-02-20 15:52:00,
2013-02-20 11:12:00,29.0,10.0,-100.00,West,272,8.0,13.0,45,0.00,,,0.00,,2013-02-20 16:12:00,
2013-02-20 11:22:00,29.0,10.0,-100.00,West,272,8.0,13.0,45,0.00,,,0.00,,2013-02-20 16:22:00,
2013-02-20 11:32:00,29.0,10.0,-100.00,West,272,8.0,13.0,45,0.00,,,0.00,,2013-02-20 16:32:00,
2013-02-20 11:42:00,30.0,9.0,-100.00,WNW,289,12.0,17.0,40,0.00,,,0.00,,2013-02-20 16:42:00,
2013-02-20 12:21:00,30.0,9.0,-100.00,WNW,289,12.0,17.0,40,0.00,,,0.00,,2013-02-20 17:21:00,
2013-02-20 12:32:00,30.0,9.0,-100.00,WNW,289,12.0,17.0,40,0.00,,,0.00,,2013-02-20 17:32:00,
2013-02-20 13:02:00,31.0,9.0,-100.00,WNW,296,13.0,20.0,39,0.00,,,0.00,,2013-02-20 18:02:00,
2013-02-20 13:11:00,31.0,9.0,-100.00,WNW,296,13.0,20.0,39,0.00,,,0.00,,2013-02-20 18:11:00,
2013-02-20 13:22:00,31.0,8.0,-100.00,WNW,301,14.0,20.0,37,0.00,,,0.00,,2013-02-20 18:22:00,
2013-02-20 13:32:00,31.0,8.0,-100.00,WNW,301,14.0,20.0,37,0.00,,,0.00,,2013-02-20 18:32:00,
2013-02-20 13:42:00,31.0,8.0,-100.00,WNW,301,17.0,23.0,37,0.00,,,0.00,,2013-02-20 18:42:00,
2013-02-20 13:52:00,31.0,8.0,-100.00,WNW,301,17.0,23.0,37,0.00,,,0.00,,2013-02-20 18:52:00,
2013-02-20 14:01:00,32.0,8.0,-100.00,NW,311,14.0,18.0,36,0.00,,,0.00,,2013-02-20 19:01:00,
2013-02-20 14:12:00,32.0,8.0,-100.00,NW,311,14.0,18.0,36,0.00,,,0.00,,2013-02-20 19:12:00,
2013-02-20 14:21:00,32.0,8.0,-100.00,NW,311,14.0,18.0,36,0.00,,,0.00,,2013-02-20 19:21:00,
2013-02-20 14:42:00,33.0,7.0,-100.00,NW,320,11.0,15.0,33,0.00,,,0.00,,2013-02-20 19:42:00,
2013-02-20 14:52:00,33.0,7.0,-100.00,NW,320,11.0,15.0,33,0.00,,,0.00,,2013-02-20 19:52:00,
2013-02-20 15:01:00,33.0,7.0,-100.00,NW,320,11.0,15.0,33,0.00,,,0.00,,2013-02-20 20:01:00,
2013-02-20 15:21:00,33.0,7.0,-100.00,NW,309,12.0,17.0,34,0.00,,,0.00,,2013-02-20 20:21:00,
2013-02-20 15:31:00,33.0,7.0,-100.00,NW,309,12.0,17.0,34,0.00,,,0.00,,2013-02-20 20:31:00,
2013-02-20 15:41:00,33.0,7.0,-100.00,NW,309,12.0,17.0,34,0.00,,,0.00,,2013-02-20 20:41:00,
2013-02-20 16:02:00,31.0,9.0,-100.00,NW,308,20.0,26.0,38,0.00,,,0.00,,2013-02-20 21:02:00,
2013-02-20 16:21:00,32.0,9.0,-100.00,NW,313,20.0,30.0,38,0.00,,,0.00,,2013-02-20 21:21:00,
2013-02-20 16:32:00,32.0,9.0,-100.00,NW,313,20.0,30.0,38,0.00,,,0.00,,2013-02-20 21:32:00,
2013-02-20 16:42:00,31.0,9.0,-100.00,NW,308,20.0,26.0,38,0.00,,,0.00,,2013-02-20 21:42:00,
2013-02-20 16:52:00,31.0,9.0,-100.00,NW,308,20.0,26.0,38,0.00,,,0.00,,2013-02-20 21:52:00,
2013-02-20 18:02:00,27.0,9.0,-100.00,NNW,340,11.0,17.0,47,0.00,,,0.00,,2013-02-20 23:02:00,
2013-02-20 18:22:00,28.0,9.0,-100.00,NNW,343,11.0,16.0,46,0.00,,,0.00,,2013-02-20 23:22:00,
2013-02-20 18:32:00,28.0,9.0,-100.00,NNW,343,11.0,16.0,46,0.00,,,0.00,,2013-02-20 23:32:00,
2013-02-20 18:42:00,27.0,9.0,-100.00,NNW,340,11.0,17.0,47,0.00,,,0.00,,2013-02-20 23:42:00,
2013-02-20 18:53:00,27.0,9.0,-100.00,NNW,340,11.0,17.0,47,0.00,,,0.00,,2013-02-20 23:53:00,